Location: Newark
(15.4608°S, 41.1635°W)
Time: 23:57:57
(UTC+00:00)

Transit 4A - Pass Details

Date: 05 March 2021
Orbit: 869 x 975 km, 66.8° (Epoch: 16 April)

Event Time Altitude Azimuth Distance (km) Brightness Sun altitude
Rises 00:02:38 0° 327° (NNW) 3,444 - -41.9°
Reaches altitude 10° 00:05:10 10° 322° (NW) 2,507 - -42.5°
Maximum altitude 00:10:44 49° 248° (WSW) 1,107 - -43.7°
Drops below altitude 10° 00:16:23 10° 173° (S) 2,537 - -45.0°
Sets 00:18:59 0° 167° (SSE) 3,489 - -45.5°
